Weather History for West Palm Beach, FL

Change the Weather History Date:

Sunday, October 9, 2011

  Actual Average Record
Temperature  
Mean Temperature 78 °F 80 °F  
Max Temperature 83 °F 86 °F 94 °F (1925)
Min Temperature 73 °F 73 °F 54 °F (1920)
Degree Days  
Heating Degree Days 0 0  
Month to date heating degree days 0 0  
Since 1 July heating degree days 0 0  
Cooling Degree Days 13 15  
Month to date cooling degree days 142 137  
Year to date cooling degree days 4034 3345  
Growing Degree Days 28 (Base 50)    
Moisture  
Dew Point 69 °F    
Average Humidity 74    
Maximum Humidity 85    
Minimum Humidity 63    
Precipitation  
Precipitation 0.01 in 0.19 in 2.37 in (1924)
Month to date precipitation 0.04 1.78  
Year to date precipitation 35.81 50.85  
Snow  
Snow 0.00 in - - ()
Month to date snowfall 0.0  
Since 1 July snowfall 0.0  
Since 1 September snowfall 0.0  
Snow Depth 0.00 in    
Sea Level Pressure  
Sea Level Pressure 29.81 in    
Wind  
Wind Speed 15 mph (NE)    
Max Wind Speed 32 mph    
Max Gust Speed 39 mph    
Visibility 10 miles    
Events      
T = Trace of Precipitation, MM = Missing Value Source: NWS Daily Summary

Daily Weather History Graph

Daily Weather History Graph

Search for Another Location

Airport:

Trip Planner

Search our weather history database for the weather conditions in past years. The results will help you decide how hot, cold, wet, or windy it might be!

Date:

Astronomy

Oct. 09, 2011 Rise Set
Actual Time 7:16 AM EDT 6:58 PM EDT
Civil Twilight 6:53 AM EDT 7:21 PM EDT
Nautical Twilight 6:26 AM EDT 7:48 PM EDT
Astronomical Twilight 5:59 AM EDT 8:15 PM EDT
Moon 5:28 PM EDT (10/9) 5:08 AM EDT (10/9)
Length of Visible Light 12h 28m
Length of Day
11h 41m
Waxing Gibbous, 95% of the Moon is Illuminated
Oct 9
Waxing Gibbous
Oct 11
Full
Oct 19
Last Quarter
Oct 26
New
Nov 2
First Quarter

Hourly Weather History & Observations

Time (EDT) Temp. Heat Index Dew Point Humidity Pressure Visibility Wind Dir Wind Speed Gust Speed Precip Events Conditions
12:53 AM 79.0 °F - 73.0 °F 82% 29.89 in 10.0 mi East 24.2 mph 34.5 mph N/A   Overcast
1:53 AM 79.0 °F - 70.0 °F 74% 29.88 in 10.0 mi East 27.6 mph 36.8 mph N/A   Overcast
2:53 AM 79.0 °F - 69.1 °F 72% 29.85 in 10.0 mi East 26.5 mph 38.0 mph N/A   Overcast
3:53 AM 78.1 °F - 72.0 °F 81% 29.84 in 10.0 mi East 23.0 mph 32.2 mph 0.01 in   Overcast
4:53 AM 78.1 °F - 70.0 °F 76% 29.83 in 10.0 mi East 19.6 mph 29.9 mph N/A   Overcast
5:53 AM 78.1 °F - 66.9 °F 68% 29.83 in 10.0 mi East 27.6 mph 34.5 mph N/A   Overcast
6:53 AM 78.1 °F - 68.0 °F 71% 29.84 in 10.0 mi East 19.6 mph 27.6 mph N/A   Mostly Cloudy
7:07 AM 78.8 °F - 68.0 °F 69% 29.84 in 10.0 mi East 20.7 mph 26.5 mph N/A   Mostly Cloudy
7:53 AM 78.1 °F - 68.0 °F 71% 29.84 in 10.0 mi ENE 20.7 mph 31.1 mph N/A   Mostly Cloudy
8:53 AM 80.1 °F 82.9 °F 69.1 °F 69% 29.84 in 10.0 mi ENE 18.4 mph 27.6 mph N/A   Mostly Cloudy
9:53 AM 80.1 °F 82.9 °F 69.1 °F 69% 29.83 in 10.0 mi ENE 28.8 mph 39.1 mph N/A   Overcast
10:45 AM 82.4 °F 84.6 °F 66.2 °F 58% 29.84 in 10.0 mi ENE 21.9 mph 33.4 mph N/A   Mostly Cloudy
10:53 AM 82.0 °F 84.9 °F 68.0 °F 62% 29.85 in 10.0 mi ENE 25.3 mph 32.2 mph N/A   Mostly Cloudy
11:27 AM 82.4 °F 86.3 °F 69.8 °F 66% 29.84 in 10.0 mi NE 20.7 mph 31.1 mph N/A   Mostly Cloudy
11:53 AM 82.0 °F 85.5 °F 69.1 °F 65% 29.83 in 10.0 mi NE 25.3 mph 31.1 mph N/A   Mostly Cloudy
12:53 PM 82.0 °F 85.5 °F 69.1 °F 65% 29.81 in 10.0 mi NNE 18.4 mph 31.1 mph N/A   Mostly Cloudy
1:53 PM 82.0 °F 85.5 °F 69.1 °F 65% 29.77 in 10.0 mi NNE 18.4 mph 28.8 mph N/A   Mostly Cloudy
2:53 PM 81.0 °F 83.8 °F 68.0 °F 65% 29.76 in 10.0 mi North 15.0 mph 25.3 mph N/A   Mostly Cloudy
3:53 PM 82.0 °F 84.9 °F 68.0 °F 62% 29.76 in 10.0 mi North 15.0 mph 19.6 mph N/A   Mostly Cloudy
4:53 PM 82.0 °F 84.9 °F 68.0 °F 62% 29.76 in 10.0 mi North 6.9 mph - N/A   Mostly Cloudy
5:53 PM 79.0 °F - 68.0 °F 69% 29.75 in 10.0 mi NNW 8.1 mph - N/A   Mostly Cloudy
6:04 PM 78.8 °F - 68.0 °F 69% 29.74 in 10.0 mi NNW 5.8 mph - N/A   Mostly Cloudy
6:53 PM 77.0 °F - 66.9 °F 71% 29.75 in 10.0 mi WNW 3.5 mph - N/A   Scattered Clouds
7:53 PM 77.0 °F - 68.0 °F 74% 29.77 in 10.0 mi Calm Calm - N/A   Scattered Clouds
8:53 PM 75.9 °F - 68.0 °F 76% 29.79 in 10.0 mi West 4.6 mph - N/A   Scattered Clouds
9:53 PM 75.0 °F - 69.1 °F 82% 29.81 in 10.0 mi WNW 3.5 mph - N/A   Mostly Cloudy
10:53 PM 75.0 °F - 69.1 °F 82% 29.80 in 10.0 mi Calm Calm - N/A   Mostly Cloudy
11:53 PM 73.9 °F - 68.0 °F 82% 29.80 in 10.0 mi Calm Calm - N/A   Scattered Clouds